Time,TemperatureF,DewpointF,PressureIn,WindDirection,WindDirectionDegrees,WindSpeedMPH,WindSpeedGustMPH,Humidity,HourlyPrecipIn,Conditions,Clouds,dailyrainin,SoftwareType,DateUTC
2013-06-30 00:00:00,53.0,46.3,30.02,SW,225,0.0,2.0,78,0.00,,,-99.99,Weather View 32 v60,2013-06-30 05:00:00,
2013-06-30 00:05:00,53.0,46.6,30.02,SW,225,0.0,1.0,79,0.00,,,-99.99,Weather View 32 v60,2013-06-30 05:05:00,
2013-06-30 00:10:00,53.0,46.6,30.02,WSW,248,0.0,1.0,79,0.00,,,-99.99,Weather View 32 v60,2013-06-30 05:10:00,
2013-06-30 00:15:00,53.0,47.0,30.03,WSW,248,0.0,0.0,80,0.00,,,-99.99,Weather View 32 v60,2013-06-30 05:15:00,
2013-06-30 00:20:00,52.0,46.0,30.03,SW,225,0.0,0.0,80,0.00,,,-99.99,Weather View 32 v60,2013-06-30 05:20:00,
2013-06-30 00:25:00,52.0,46.0,30.03,SW,225,0.0,0.0,80,0.00,,,-99.99,Weather View 32 v60,2013-06-30 05:25:00,
2013-06-30 00:30:00,52.0,46.0,30.03,WSW,248,0.0,0.0,80,0.00,,,-99.99,Weather View 32 v60,2013-06-30 05:30:00,
2013-06-30 00:40:00,52.0,46.3,30.04,WSW,248,0.0,0.0,81,0.00,,,-99.99,Weather View 32 v60,2013-06-30 05:40:00,
2013-06-30 00:45:00,51.0,45.4,30.04,SW,225,0.0,0.0,81,0.00,,,-99.99,Weather View 32 v60,2013-06-30 05:45:00,
2013-06-30 00:50:00,52.0,46.3,30.04,SW,225,0.0,0.0,81,0.00,,,-99.99,Weather View 32 v60,2013-06-30 05:50:00,
2013-06-30 00:55:00,52.0,46.7,30.04,WSW,248,0.0,0.0,82,0.00,,,-99.99,Weather View 32 v60,2013-06-30 05:55:00,
2013-06-30 01:00:00,52.0,46.7,30.04,WSW,248,0.0,0.0,82,0.00,,,-99.99,Weather View 32 v60,2013-06-30 06:00:00,
2013-06-30 01:05:00,51.0,45.7,30.04,WSW,248,0.0,0.0,82,0.00,,,-99.99,Weather View 32 v60,2013-06-30 06:05:00,
2013-06-30 01:10:00,51.0,45.7,30.04,West,270,0.0,0.0,82,0.00,,,-99.99,Weather View 32 v60,2013-06-30 06:10:00,
2013-06-30 01:15:00,51.0,45.7,30.04,SW,225,0.0,0.0,82,0.00,,,-99.99,Weather View 32 v60,2013-06-30 06:15:00,
2013-06-30 01:20:00,51.0,46.0,30.04,SW,225,0.0,0.0,83,0.00,,,-99.99,Weather View 32 v60,2013-06-30 06:20:00,
2013-06-30 01:25:00,51.0,46.0,30.05,SW,225,0.0,0.0,83,0.00,,,-99.99,Weather View 32 v60,2013-06-30 06:25:00,
2013-06-30 01:30:00,51.0,46.0,30.05,NNW,338,1.0,1.0,83,0.00,,,-99.99,Weather View 32 v60,2013-06-30 06:30:00,
2013-06-30 01:35:00,51.0,46.0,30.05,South,180,1.0,3.0,83,0.00,,,-99.99,Weather View 32 v60,2013-06-30 06:35:00,
2013-06-30 01:40:00,51.0,46.0,30.05,SSW,202,0.0,3.0,83,0.00,,,-99.99,Weather View 32 v60,2013-06-30 06:40:00,
2013-06-30 01:45:00,51.0,46.0,30.05,SSW,202,1.0,3.0,83,0.00,,,-99.99,Weather View 32 v60,2013-06-30 06:45:00,
2013-06-30 01:50:00,51.0,46.0,30.05,SW,225,0.0,3.0,83,0.00,,,-99.99,Weather View 32 v60,2013-06-30 06:50:00,
2013-06-30 01:55:00,51.0,46.0,30.05,SW,225,0.0,3.0,83,0.00,,,-99.99,Weather View 32 v60,2013-06-30 06:55:00,
2013-06-30 02:00:00,51.0,46.0,30.05,SW,225,0.0,3.0,83,0.00,,,-99.99,Weather View 32 v60,2013-06-30 07:00:00,
2013-06-30 02:05:00,51.0,46.3,30.05,West,270,0.0,3.0,84,0.00,,,-99.99,Weather View 32 v60,2013-06-30 07:05:00,
2013-06-30 02:10:00,50.0,45.3,30.05,SW,225,0.0,3.0,84,0.00,,,-99.99,Weather View 32 v60,2013-06-30 07:10:00,
2013-06-30 02:15:00,50.0,45.3,30.05,SW,225,0.0,3.0,84,0.00,,,-99.99,Weather View 32 v60,2013-06-30 07:15:00,
2013-06-30 02:20:00,50.0,45.3,30.05,SSW,202,1.0,3.0,84,0.00,,,-99.99,Weather View 32 v60,2013-06-30 07:20:00,
2013-06-30 02:25:00,50.0,45.3,30.05,WSW,248,0.0,3.0,84,0.00,,,-99.99,Weather View 32 v60,2013-06-30 07:25:00,
2013-06-30 02:30:00,50.0,45.3,30.05,SW,225,0.0,3.0,84,0.00,,,-99.99,Weather View 32 v60,2013-06-30 07:30:00,
2013-06-30 02:35:00,50.0,45.3,30.06,SW,225,0.0,2.0,84,0.00,,,-99.99,Weather View 32 v60,2013-06-30 07:35:00,
2013-06-30 02:40:00,50.0,45.7,30.06,WSW,248,0.0,2.0,85,0.00,,,-99.99,Weather View 32 v60,2013-06-30 07:40:00,
2013-06-30 02:45:00,50.0,45.7,30.06,WSW,248,0.0,2.0,85,0.00,,,-99.99,Weather View 32 v60,2013-06-30 07:45:00,
2013-06-30 02:50:00,50.0,45.7,30.06,West,270,0.0,2.0,85,0.00,,,-99.99,Weather View 32 v60,2013-06-30 07:50:00,
2013-06-30 02:55:00,50.0,45.7,30.06,SW,225,0.0,2.0,85,0.00,,,-99.99,Weather View 32 v60,2013-06-30 07:55:00,
2013-06-30 03:00:00,50.0,45.7,30.06,South,180,1.0,2.0,85,0.00,,,-99.99,Weather View 32 v60,2013-06-30 08:00:00,
2013-06-30 03:05:00,50.0,45.7,30.06,SSW,202,0.0,2.0,85,0.00,,,-99.99,Weather View 32 v60,2013-06-30 08:05:00,
2013-06-30 03:10:00,50.0,45.7,30.06,SW,225,0.0,2.0,85,0.00,,,-99.99,Weather View 32 v60,2013-06-30 08:10:00,
2013-06-30 03:15:00,50.0,45.7,30.06,SSW,202,0.0,2.0,85,0.00,,,-99.99,Weather View 32 v60,2013-06-30 08:15:00,
2013-06-30 03:20:00,50.0,45.7,30.06,South,180,1.0,2.0,85,0.00,,,-99.99,Weather View 32 v60,2013-06-30 08:20:00,
2013-06-30 03:25:00,50.0,45.7,30.06,SW,225,0.0,2.0,85,0.00,,,-99.99,Weather View 32 v60,2013-06-30 08:25:00,
2013-06-30 03:30:00,50.0,45.7,30.06,SW,225,0.0,2.0,85,0.00,,,-99.99,Weather View 32 v60,2013-06-30 08:30:00,
2013-06-30 03:35:00,50.0,45.7,30.06,WSW,248,0.0,2.0,85,0.00,,,-99.99,Weather View 32 v60,2013-06-30 08:35:00,
2013-06-30 03:40:00,50.0,45.7,30.06,WSW,248,0.0,2.0,85,0.00,,,-99.99,Weather View 32 v60,2013-06-30 08:40:00,
2013-06-30 03:45:00,50.0,45.7,30.07,WSW,248,0.0,2.0,85,0.00,,,-99.99,Weather View 32 v60,2013-06-30 08:45:00,
2013-06-30 03:50:00,49.0,45.0,30.06,WSW,248,0.0,2.0,86,0.00,,,-99.99,Weather View 32 v60,2013-06-30 08:50:00,
2013-06-30 03:55:00,49.0,45.0,30.07,SW,225,0.0,2.0,86,0.00,,,-99.99,Weather View 32 v60,2013-06-30 08:55:00,
2013-06-30 04:00:00,49.0,45.0,30.07,SW,225,0.0,2.0,86,0.00,,,-99.99,Weather View 32 v60,2013-06-30 09:00:00,
2013-06-30 04:05:00,49.0,45.0,30.07,SW,225,0.0,2.0,86,0.00,,,-99.99,Weather View 32 v60,2013-06-30 09:05:00,
2013-06-30 04:10:00,49.0,45.0,30.07,WSW,248,0.0,2.0,86,0.00,,,-99.99,Weather View 32 v60,2013-06-30 09:10:00,
2013-06-30 04:15:00,49.0,45.0,30.07,SW,225,0.0,2.0,86,0.00,,,-99.99,Weather View 32 v60,2013-06-30 09:15:00,
2013-06-30 04:20:00,50.0,46.0,30.07,SW,225,0.0,1.0,86,0.00,,,-99.99,Weather View 32 v60,2013-06-30 09:20:00,
2013-06-30 04:25:00,50.0,46.0,30.07,West,270,1.0,1.0,86,0.00,,,-99.99,Weather View 32 v60,2013-06-30 09:25:00,
2013-06-30 04:30:00,49.0,45.0,30.07,SW,225,0.0,2.0,86,0.00,,,-99.99,Weather View 32 v60,2013-06-30 09:30:00,
2013-06-30 04:35:00,49.0,45.0,30.07,SW,225,0.0,2.0,86,0.00,,,-99.99,Weather View 32 v60,2013-06-30 09:35:00,
2013-06-30 04:40:00,49.0,45.0,30.07,SW,225,0.0,2.0,86,0.00,,,-99.99,Weather View 32 v60,2013-06-30 09:40:00,
2013-06-30 04:45:00,50.0,46.3,30.08,South,180,0.0,2.0,87,0.00,,,-99.99,Weather View 32 v60,2013-06-30 09:45:00,
2013-06-30 04:55:00,50.0,46.3,30.08,SSE,158,1.0,2.0,87,0.00,,,-99.99,Weather View 32 v60,2013-06-30 09:55:00,
2013-06-30 05:00:00,50.0,46.3,30.08,SW,225,0.0,2.0,87,0.00,,,-99.99,Weather View 32 v60,2013-06-30 10:00:00,
2013-06-30 05:05:00,50.0,46.3,30.08,WSW,248,0.0,3.0,87,0.00,,,-99.99,Weather View 32 v60,2013-06-30 10:05:00,
2013-06-30 05:10:00,50.0,46.3,30.08,SW,225,0.0,3.0,87,0.00,,,-99.99,Weather View 32 v60,2013-06-30 10:10:00,
2013-06-30 05:19:00,49.0,45.3,30.08,SW,225,0.0,3.0,87,0.00,,,-99.99,Weather View 32 v60,2013-06-30 10:19:00,
2013-06-30 05:25:00,49.0,45.3,30.09,SW,225,0.0,3.0,87,0.00,,,-99.99,Weather View 32 v60,2013-06-30 10:25:00,
2013-06-30 05:30:00,49.0,45.3,30.09,SW,225,0.0,3.0,87,0.00,,,-99.99,Weather View 32 v60,2013-06-30 10:30:00,
2013-06-30 05:35:00,49.0,45.3,30.09,SSW,202,1.0,3.0,87,0.00,,,-99.99,Weather View 32 v60,2013-06-30 10:35:00,
2013-06-30 05:40:00,49.0,45.3,30.09,SW,225,0.0,3.0,87,0.00,,,-99.99,Weather View 32 v60,2013-06-30 10:40:00,
2013-06-30 05:45:00,49.0,45.3,30.09,SW,225,0.0,3.0,87,0.00,,,-99.99,Weather View 32 v60,2013-06-30 10:45:00,
2013-06-30 05:50:00,49.0,45.3,30.09,SSW,202,1.0,3.0,87,0.00,,,-99.99,Weather View 32 v60,2013-06-30 10:50:00,
2013-06-30 06:00:00,49.0,45.3,30.10,SW,225,0.0,3.0,87,0.00,,,-99.99,Weather View 32 v60,2013-06-30 11:00:00,
2013-06-30 06:05:00,49.0,45.3,30.10,SE,135,1.0,3.0,87,0.00,,,-99.99,Weather View 32 v60,2013-06-30 11:05:00,
2013-06-30 06:10:00,49.0,45.3,30.10,SSW,202,1.0,3.0,87,0.00,,,-99.99,Weather View 32 v60,2013-06-30 11:10:00,
2013-06-30 06:15:00,50.0,46.3,30.10,SW,225,0.0,3.0,87,0.00,,,-99.99,Weather View 32 v60,2013-06-30 11:15:00,
2013-06-30 06:20:00,50.0,46.6,30.10,SSE,158,2.0,3.0,88,0.00,,,-99.99,Weather View 32 v60,2013-06-30 11:20:00,
2013-06-30 06:25:00,50.0,46.6,30.10,SW,225,1.0,3.0,88,0.00,,,-99.99,Weather View 32 v60,2013-06-30 11:25:00,
2013-06-30 06:30:00,50.0,46.6,30.10,SE,135,1.0,3.0,88,0.00,,,-99.99,Weather View 32 v60,2013-06-30 11:30:00,
2013-06-30 06:40:00,50.0,46.6,30.10,SW,225,0.0,3.0,88,0.00,,,-99.99,Weather View 32 v60,2013-06-30 11:40:00,
2013-06-30 06:45:00,50.0,46.6,30.10,ESE,112,2.0,3.0,88,0.00,,,-99.99,Weather View 32 v60,2013-06-30 11:45:00,
2013-06-30 06:50:00,51.0,47.6,30.10,South,180,1.0,3.0,88,0.00,,,-99.99,Weather View 32 v60,2013-06-30 11:50:00,
2013-06-30 07:00:00,51.0,47.6,30.11,East,90,1.0,3.0,88,0.00,,,-99.99,Weather View 32 v60,2013-06-30 12:00:00,
2013-06-30 07:05:00,52.0,48.5,30.11,South,180,1.0,3.0,88,0.00,,,-99.99,Weather View 32 v60,2013-06-30 12:05:00,
2013-06-30 07:10:00,52.0,48.5,30.11,WSW,248,1.0,3.0,88,0.00,,,-99.99,Weather View 32 v60,2013-06-30 12:10:00,
2013-06-30 07:20:00,54.0,50.8,30.12,West,270,1.0,3.0,89,0.00,,,-99.99,Weather View 32 v60,2013-06-30 12:20:00,
2013-06-30 07:30:00,55.0,51.8,30.12,SSW,202,1.0,3.0,89,0.00,,,-99.99,Weather View 32 v60,2013-06-30 12:30:00,
2013-06-30 07:40:00,57.0,53.8,30.12,NNW,338,1.0,3.0,89,0.00,,,-99.99,Weather View 32 v60,2013-06-30 12:40:00,
2013-06-30 07:45:00,58.0,54.8,30.12,South,180,1.0,3.0,89,0.00,,,-99.99,Weather View 32 v60,2013-06-30 12:45:00,
2013-06-30 07:50:00,59.0,55.4,30.12,West,270,1.0,3.0,88,0.00,,,-99.99,Weather View 32 v60,2013-06-30 12:50:00,
2013-06-30 07:55:00,59.0,55.1,30.12,WNW,292,1.0,3.0,87,0.00,,,-99.99,Weather View 32 v60,2013-06-30 12:55:00,
2013-06-30 08:05:00,60.0,55.1,30.13,North,0,2.0,3.0,84,0.00,,,-99.99,Weather View 32 v60,2013-06-30 13:05:00,
2013-06-30 08:10:00,60.0,55.1,30.13,WNW,292,1.0,3.0,84,0.00,,,-99.99,Weather View 32 v60,2013-06-30 13:10:00,
2013-06-30 08:15:00,60.0,54.8,30.13,WNW,292,1.0,3.0,83,0.00,,,-99.99,Weather View 32 v60,2013-06-30 13:15:00,
2013-06-30 08:20:00,60.0,54.5,30.12,NNE,22,2.0,3.0,82,0.00,,,-99.99,Weather View 32 v60,2013-06-30 13:20:00,
2013-06-30 08:25:00,61.0,55.5,30.12,SW,225,1.0,3.0,82,0.00,,,-99.99,Weather View 32 v60,2013-06-30 13:25:00,
2013-06-30 08:30:00,61.0,55.5,30.13,West,270,1.0,3.0,82,0.00,,,-99.99,Weather View 32 v60,2013-06-30 13:30:00,
2013-06-30 08:35:00,62.0,56.1,30.13,ENE,68,1.0,3.0,81,0.00,,,-99.99,Weather View 32 v60,2013-06-30 13:35:00,
2013-06-30 08:40:00,62.0,55.7,30.12,SSW,202,1.0,3.0,80,0.00,,,-99.99,Weather View 32 v60,2013-06-30 13:40:00,
2013-06-30 08:45:00,62.0,55.0,30.12,NNW,338,1.0,5.0,78,0.00,,,-99.99,Weather View 32 v60,2013-06-30 13:45:00,
2013-06-30 08:50:00,62.0,54.7,30.13,NNE,22,3.0,5.0,77,0.00,,,-99.99,Weather View 32 v60,2013-06-30 13:50:00,
2013-06-30 08:55:00,63.0,55.3,30.13,WSW,248,1.0,5.0,76,0.00,,,-99.99,Weather View 32 v60,2013-06-30 13:55:00,
2013-06-30 09:00:00,64.0,56.3,30.13,ENE,68,3.0,5.0,76,0.00,,,-99.99,Weather View 32 v60,2013-06-30 14:00:00,
2013-06-30 09:05:00,65.0,56.9,30.13,NNW,338,1.0,5.0,75,0.00,,,-99.99,Weather View 32 v60,2013-06-30 14:05:00,
2013-06-30 09:15:00,67.0,57.3,30.13,NNE,22,1.0,5.0,71,0.00,,,-99.99,Weather View 32 v60,2013-06-30 14:15:00,
2013-06-30 09:20:00,68.0,58.2,30.13,West,270,1.0,5.0,71,0.00,,,-99.99,Weather View 32 v60,2013-06-30 14:20:00,
2013-06-30 09:25:00,69.0,58.4,30.13,NNE,22,3.0,6.0,69,0.00,,,-99.99,Weather View 32 v60,2013-06-30 14:25:00,
2013-06-30 09:30:00,70.0,58.5,30.12,North,0,1.0,6.0,67,0.00,,,-99.99,Weather View 32 v60,2013-06-30 14:30:00,
2013-06-30 09:35:00,71.0,59.0,30.12,North,0,3.0,6.0,66,0.00,,,-99.99,Weather View 32 v60,2013-06-30 14:35:00,
2013-06-30 09:40:00,71.0,58.2,30.12,NNE,22,2.0,6.0,64,0.00,,,-99.99,Weather View 32 v60,2013-06-30 14:40:00,
2013-06-30 09:45:00,72.0,58.2,30.12,NE,45,3.0,7.0,62,0.00,,,-99.99,Weather View 32 v60,2013-06-30 14:45:00,
2013-06-30 09:50:00,72.0,58.2,30.12,North,0,1.0,7.0,62,0.00,,,-99.99,Weather View 32 v60,2013-06-30 14:50:00,
2013-06-30 10:00:00,74.0,58.2,30.12,NNE,22,4.0,7.0,58,0.00,,,-99.99,Weather View 32 v60,2013-06-30 15:00:00,
2013-06-30 10:05:00,74.0,57.8,30.11,North,0,5.0,7.0,57,0.00,,,-99.99,Weather View 32 v60,2013-06-30 15:05:00,
2013-06-30 10:15:00,74.0,57.3,30.11,WNW,292,3.0,9.0,56,0.00,,,-99.99,Weather View 32 v60,2013-06-30 15:15:00,
2013-06-30 10:20:00,74.0,56.8,30.11,North,0,3.0,9.0,55,0.00,,,-99.99,Weather View 32 v60,2013-06-30 15:20:00,
2013-06-30 10:25:00,74.0,56.2,30.11,SSW,202,1.0,10.0,54,0.00,,,-99.99,Weather View 32 v60,2013-06-30 15:25:00,
2013-06-30 10:35:00,74.0,55.7,30.11,North,0,8.0,10.0,53,0.00,,,-99.99,Weather View 32 v60,2013-06-30 15:35:00,
2013-06-30 10:40:00,74.0,55.2,30.11,NE,45,5.0,11.0,52,0.00,,,-99.99,Weather View 32 v60,2013-06-30 15:40:00,
2013-06-30 10:45:00,74.0,55.2,30.11,NNW,338,2.0,11.0,52,0.00,,,-99.99,Weather View 32 v60,2013-06-30 15:45:00,
2013-06-30 10:50:00,75.0,57.2,30.11,NE,45,6.0,11.0,54,0.00,,,-99.99,Weather View 32 v60,2013-06-30 15:50:00,
2013-06-30 10:55:00,75.0,56.1,30.11,NNE,22,5.0,11.0,52,0.00,,,-99.99,Weather View 32 v60,2013-06-30 15:55:00,
2013-06-30 11:00:00,75.0,55.6,30.11,NNE,22,3.0,11.0,51,0.00,,,-99.99,Weather View 32 v60,2013-06-30 16:00:00,
2013-06-30 11:05:00,75.0,55.6,30.11,North,0,5.0,11.0,51,0.00,,,-99.99,Weather View 32 v60,2013-06-30 16:05:00,
2013-06-30 11:15:00,76.0,56.0,30.11,North,0,3.0,11.0,50,0.00,,,-99.99,Weather View 32 v60,2013-06-30 16:15:00,
2013-06-30 11:20:00,76.0,54.8,30.11,North,0,4.0,11.0,48,0.00,,,-99.99,Weather View 32 v60,2013-06-30 16:20:00,
2013-06-30 11:25:00,76.0,55.4,30.11,ESE,112,3.0,11.0,49,0.00,,,-99.99,Weather View 32 v60,2013-06-30 16:25:00,
2013-06-30 11:35:00,77.0,56.9,30.10,NNE,22,4.0,11.0,50,0.00,,,-99.99,Weather View 32 v60,2013-06-30 16:35:00,
2013-06-30 11:40:00,77.0,55.7,30.10,ENE,68,5.0,10.0,48,0.00,,,-99.99,Weather View 32 v60,2013-06-30 16:40:00,
2013-06-30 11:50:00,77.0,55.2,30.10,NNE,22,6.0,10.0,47,0.00,,,-99.99,Weather View 32 v60,2013-06-30 16:50:00,
2013-06-30 11:55:00,77.0,55.2,30.10,NNE,22,5.0,10.0,47,0.00,,,-99.99,Weather View 32 v60,2013-06-30 16:55:00,
2013-06-30 12:00:00,77.0,54.6,30.10,ENE,68,6.0,10.0,46,0.00,,,-99.99,Weather View 32 v60,2013-06-30 17:00:00,
2013-06-30 12:05:00,78.0,55.5,30.10,ESE,112,4.0,10.0,46,0.00,,,-99.99,Weather View 32 v60,2013-06-30 17:05:00,
2013-06-30 12:10:00,78.0,54.2,30.09,NE,45,3.0,10.0,44,0.00,,,-99.99,Weather View 32 v60,2013-06-30 17:10:00,
2013-06-30 12:15:00,78.0,54.2,30.10,North,0,5.0,10.0,44,0.00,,,-99.99,Weather View 32 v60,2013-06-30 17:15:00,
2013-06-30 12:20:00,79.0,54.5,30.09,NNE,22,6.0,13.0,43,0.00,,,-99.99,Weather View 32 v60,2013-06-30 17:20:00,
2013-06-30 12:25:00,79.0,53.9,30.09,NNE,22,3.0,13.0,42,0.00,,,-99.99,Weather View 32 v60,2013-06-30 17:25:00,
2013-06-30 12:30:00,79.0,55.2,30.09,NW,315,3.0,13.0,44,0.00,,,-99.99,Weather View 32 v60,2013-06-30 17:30:00,
2013-06-30 12:35:00,79.0,53.9,30.10,ESE,112,1.0,13.0,42,0.00,,,-99.99,Weather View 32 v60,2013-06-30 17:35:00,
2013-06-30 12:45:00,79.0,53.2,30.10,East,90,8.0,13.0,41,0.00,,,-99.99,Weather View 32 v60,2013-06-30 17:45:00,
2013-06-30 12:50:00,79.0,52.5,30.09,North,0,3.0,13.0,40,0.00,,,-99.99,Weather View 32 v60,2013-06-30 17:50:00,
2013-06-30 12:55:00,79.0,51.8,30.09,NNE,22,4.0,13.0,39,0.00,,,-99.99,Weather View 32 v60,2013-06-30 17:55:00,
2013-06-30 13:00:00,80.0,52.7,30.09,SSE,158,3.0,13.0,39,0.00,,,-99.99,Weather View 32 v60,2013-06-30 18:00:00,
2013-06-30 13:05:00,80.0,52.7,30.09,North,0,10.0,13.0,39,0.00,,,-99.99,Weather View 32 v60,2013-06-30 18:05:00,
2013-06-30 13:10:00,80.0,53.4,30.09,North,0,3.0,13.0,40,0.00,,,-99.99,Weather View 32 v60,2013-06-30 18:10:00,
2013-06-30 13:20:00,81.0,51.4,30.09,ESE,112,3.0,13.0,36,0.00,,,-99.99,Weather View 32 v60,2013-06-30 18:20:00,
2013-06-30 13:25:00,81.0,50.7,30.09,SE,135,3.0,11.0,35,0.00,,,-99.99,Weather View 32 v60,2013-06-30 18:25:00,
2013-06-30 13:30:00,81.0,51.4,30.09,East,90,3.0,11.0,36,0.00,,,-99.99,Weather View 32 v60,2013-06-30 18:30:00,
2013-06-30 13:40:00,80.0,51.3,30.09,NNE,22,4.0,11.0,37,0.00,,,-99.99,Weather View 32 v60,2013-06-30 18:40:00,
2013-06-30 13:45:00,81.0,51.4,30.09,North,0,5.0,11.0,36,0.00,,,-99.99,Weather View 32 v60,2013-06-30 18:45:00,
2013-06-30 13:50:00,80.0,50.6,30.10,East,90,5.0,12.0,36,0.00,,,-99.99,Weather View 32 v60,2013-06-30 18:50:00,
2013-06-30 14:00:00,81.0,48.3,30.09,SSW,202,2.0,12.0,32,0.00,,,-99.99,Weather View 32 v60,2013-06-30 19:00:00,
2013-06-30 14:05:00,80.0,49.0,30.09,East,90,5.0,12.0,34,0.00,,,-99.99,Weather View 32 v60,2013-06-30 19:05:00,
2013-06-30 14:10:00,79.0,50.4,30.09,ESE,112,4.0,12.0,37,0.00,,,-99.99,Weather View 32 v60,2013-06-30 19:10:00,
2013-06-30 14:15:00,80.0,49.8,30.09,ENE,68,8.0,12.0,35,0.00,,,-99.99,Weather View 32 v60,2013-06-30 19:15:00,
2013-06-30 14:24:00,81.0,49.1,30.09,ESE,112,6.0,12.0,33,0.00,,,-99.99,Weather View 32 v60,2013-06-30 19:24:00,
2013-06-30 14:30:00,82.0,49.1,30.09,East,90,5.0,12.0,32,0.00,,,-99.99,Weather View 32 v60,2013-06-30 19:30:00,
2013-06-30 14:35:00,81.0,46.5,30.09,East,90,6.0,12.0,30,0.00,,,-99.99,Weather View 32 v60,2013-06-30 19:35:00,
2013-06-30 14:40:00,81.0,46.5,30.09,SW,225,1.0,12.0,30,0.00,,,-99.99,Weather View 32 v60,2013-06-30 19:40:00,
2013-06-30 14:50:00,82.0,49.1,30.09,North,0,3.0,11.0,32,0.00,,,-99.99,Weather View 32 v60,2013-06-30 19:50:00,
2013-06-30 14:55:00,81.0,48.3,30.09,East,90,4.0,11.0,32,0.00,,,-99.99,Weather View 32 v60,2013-06-30 19:55:00,
2013-06-30 15:00:00,81.0,47.4,30.09,SE,135,7.0,11.0,31,0.00,,,-99.99,Weather View 32 v60,2013-06-30 20:00:00,
2013-06-30 15:05:00,82.0,50.0,30.09,ESE,112,5.0,11.0,33,0.00,,,-99.99,Weather View 32 v60,2013-06-30 20:05:00,
2013-06-30 15:10:00,82.0,50.0,30.09,NE,45,3.0,11.0,33,0.00,,,-99.99,Weather View 32 v60,2013-06-30 20:10:00,
2013-06-30 15:20:00,82.0,50.0,30.09,East,90,4.0,11.0,33,0.00,,,-99.99,Weather View 32 v60,2013-06-30 20:20:00,
2013-06-30 15:30:00,83.0,49.2,30.09,ENE,68,5.0,11.0,31,0.00,,,-99.99,Weather View 32 v60,2013-06-30 20:30:00,
2013-06-30 15:35:00,84.0,50.0,30.09,ESE,112,6.0,10.0,31,0.00,,,-99.99,Weather View 32 v60,2013-06-30 20:35:00,
2013-06-30 15:40:00,84.0,49.1,30.09,NE,45,5.0,10.0,30,0.00,,,-99.99,Weather View 32 v60,2013-06-30 20:40:00,
2013-06-30 15:45:00,84.0,48.2,30.09,NE,45,7.0,10.0,29,0.00,,,-99.99,Weather View 32 v60,2013-06-30 20:45:00,
2013-06-30 15:55:00,84.0,48.2,30.09,East,90,5.0,10.0,29,0.00,,,-99.99,Weather View 32 v60,2013-06-30 20:55:00,
2013-06-30 16:00:00,83.0,47.4,30.09,East,90,3.0,10.0,29,0.00,,,-99.99,Weather View 32 v60,2013-06-30 21:00:00,
2013-06-30 16:05:00,83.0,48.3,30.09,ESE,112,4.0,10.0,30,0.00,,,-99.99,Weather View 32 v60,2013-06-30 21:05:00,
2013-06-30 16:15:00,82.0,46.5,30.09,NE,45,3.0,13.0,29,0.00,,,-99.99,Weather View 32 v60,2013-06-30 21:15:00,
2013-06-30 16:20:00,80.0,45.7,30.09,West,270,2.0,13.0,30,0.00,,,-99.99,Weather View 32 v60,2013-06-30 21:20:00,
2013-06-30 16:25:00,81.0,46.5,30.09,ENE,68,4.0,13.0,30,0.00,,,-99.99,Weather View 32 v60,2013-06-30 21:25:00,
2013-06-30 16:30:00,82.0,47.4,30.09,ESE,112,3.0,13.0,30,0.00,,,-99.99,Weather View 32 v60,2013-06-30 21:30:00,
2013-06-30 16:35:00,82.0,47.4,30.09,East,90,6.0,13.0,30,0.00,,,-99.99,Weather View 32 v60,2013-06-30 21:35:00,
2013-06-30 16:45:00,83.0,46.4,30.09,NE,45,3.0,13.0,28,0.00,,,-99.99,Weather View 32 v60,2013-06-30 21:45:00,
2013-06-30 16:50:00,83.0,46.4,30.09,North,0,4.0,13.0,28,0.00,,,-99.99,Weather View 32 v60,2013-06-30 21:50:00,
2013-06-30 17:00:00,84.0,48.2,30.09,West,270,1.0,13.0,29,0.00,,,-99.99,Weather View 32 v60,2013-06-30 22:00:00,
2013-06-30 17:05:00,84.0,46.3,30.09,SE,135,3.0,13.0,27,0.00,,,-99.99,Weather View 32 v60,2013-06-30 22:05:00,
2013-06-30 17:10:00,84.0,45.3,30.09,ESE,112,7.0,13.0,26,0.00,,,-99.99,Weather View 32 v60,2013-06-30 22:10:00,
2013-06-30 17:20:00,84.0,46.3,30.09,ENE,68,2.0,10.0,27,0.00,,,-99.99,Weather View 32 v60,2013-06-30 22:20:00,
2013-06-30 17:26:00,84.0,46.3,30.09,NNE,22,3.0,10.0,27,0.00,,,-99.99,Weather View 32 v60,2013-06-30 22:26:00,
2013-06-30 17:35:00,83.0,47.4,30.09,NNE,22,6.0,10.0,29,0.00,,,-99.99,Weather View 32 v60,2013-06-30 22:35:00,
2013-06-30 17:40:00,82.0,44.6,30.09,East,90,2.0,10.0,27,0.00,,,-99.99,Weather View 32 v60,2013-06-30 22:40:00,
2013-06-30 17:45:00,82.0,45.6,30.09,NNE,22,3.0,10.0,28,0.00,,,-99.99,Weather View 32 v60,2013-06-30 22:45:00,
2013-06-30 17:55:00,81.0,45.7,30.09,ESE,112,2.0,10.0,29,0.00,,,-99.99,Weather View 32 v60,2013-06-30 22:55:00,
2013-06-30 18:00:00,81.0,46.5,30.09,East,90,3.0,10.0,30,0.00,,,-99.99,Weather View 32 v60,2013-06-30 23:00:00,
2013-06-30 18:05:00,82.0,47.4,30.09,WSW,248,1.0,10.0,30,0.00,,,-99.99,Weather View 32 v60,2013-06-30 23:05:00,
2013-06-30 18:10:00,83.0,48.3,30.09,East,90,1.0,10.0,30,0.00,,,-99.99,Weather View 32 v60,2013-06-30 23:10:00,
2013-06-30 18:20:00,83.0,47.4,30.09,NE,45,5.0,9.0,29,0.00,,,-99.99,Weather View 32 v60,2013-06-30 23:20:00,
2013-06-30 18:25:00,82.0,45.6,30.09,East,90,3.0,9.0,28,0.00,,,-99.99,Weather View 32 v60,2013-06-30 23:25:00,
2013-06-30 18:30:00,82.0,45.6,30.09,NNE,22,3.0,9.0,28,0.00,,,-99.99,Weather View 32 v60,2013-06-30 23:30:00,
2013-06-30 18:35:00,82.0,46.5,30.09,SSE,158,2.0,9.0,29,0.00,,,-99.99,Weather View 32 v60,2013-06-30 23:35:00,
2013-06-30 18:40:00,82.0,46.5,30.09,NE,45,2.0,9.0,29,0.00,,,-99.99,Weather View 32 v60,2013-06-30 23:40:00,
2013-06-30 18:45:00,82.0,46.5,30.09,ESE,112,2.0,9.0,29,0.00,,,-99.99,Weather View 32 v60,2013-06-30 23:45:00,
2013-06-30 18:55:00,81.0,45.7,30.09,East,90,2.0,8.0,29,0.00,,,-99.99,Weather View 32 v60,2013-06-30 23:55:00,
2013-06-30 19:00:00,81.0,47.4,30.09,SSE,158,2.0,8.0,31,0.00,,,-99.99,Weather View 32 v60,2013-07-01 00:00:00,
2013-06-30 19:10:00,81.0,49.1,30.09,West,270,1.0,7.0,33,0.00,,,-99.99,Weather View 32 v60,2013-07-01 00:10:00,
2013-06-30 19:15:00,81.0,49.9,30.09,WNW,292,1.0,7.0,34,0.00,,,-99.99,Weather View 32 v60,2013-07-01 00:15:00,
2013-06-30 19:20:00,82.0,50.8,30.09,WNW,292,1.0,7.0,34,0.00,,,-99.99,Weather View 32 v60,2013-07-01 00:20:00,
2013-06-30 19:25:00,82.0,50.0,30.09,SE,135,3.0,6.0,33,0.00,,,-99.99,Weather View 32 v60,2013-07-01 00:25:00,
2013-06-30 19:30:00,82.0,50.8,30.09,NNW,338,2.0,6.0,34,0.00,,,-99.99,Weather View 32 v60,2013-07-01 00:30:00,
2013-06-30 19:35:00,82.0,50.8,30.09,NE,45,3.0,6.0,34,0.00,,,-99.99,Weather View 32 v60,2013-07-01 00:35:00,
2013-06-30 19:40:00,82.0,50.8,30.10,WNW,292,1.0,6.0,34,0.00,,,-99.99,Weather View 32 v60,2013-07-01 00:40:00,
2013-06-30 19:45:00,82.0,51.6,30.09,West,270,1.0,6.0,35,0.00,,,-99.99,Weather View 32 v60,2013-07-01 00:45:00,
2013-06-30 19:55:00,81.0,50.7,30.10,WSW,248,0.0,6.0,35,0.00,,,-99.99,Weather View 32 v60,2013-07-01 00:55:00,
2013-06-30 20:00:00,80.0,50.6,30.10,WSW,248,0.0,5.0,36,0.00,,,-99.99,Weather View 32 v60,2013-07-01 01:00:00,
2013-06-30 20:05:00,79.0,50.4,30.09,WSW,248,0.0,5.0,37,0.00,,,-99.99,Weather View 32 v60,2013-07-01 01:05:00,
2013-06-30 20:15:00,78.0,51.0,30.09,SW,225,0.0,4.0,39,0.00,,,-99.99,Weather View 32 v60,2013-07-01 01:15:00,
2013-06-30 20:20:00,77.0,50.8,30.09,SW,225,0.0,4.0,40,0.00,,,-99.99,Weather View 32 v60,2013-07-01 01:20:00,
2013-06-30 20:27:00,77.0,51.4,30.10,SW,225,0.0,4.0,41,0.00,,,-99.99,Weather View 32 v60,2013-07-01 01:27:00,
2013-06-30 20:35:00,75.0,51.5,30.10,SW,225,0.0,4.0,44,0.00,,,-99.99,Weather View 32 v60,2013-07-01 01:35:00,
2013-06-30 20:40:00,74.0,51.2,30.10,SW,225,0.0,3.0,45,0.00,,,-99.99,Weather View 32 v60,2013-07-01 01:40:00,
2013-06-30 20:45:00,73.0,50.9,30.10,SW,225,0.0,2.0,46,0.00,,,-99.99,Weather View 32 v60,2013-07-01 01:45:00,
2013-06-30 20:55:00,71.0,51.4,30.10,SW,225,1.0,2.0,50,0.00,,,-99.99,Weather View 32 v60,2013-07-01 01:55:00,
2013-06-30 21:00:00,71.0,51.9,30.10,SW,225,1.0,2.0,51,0.00,,,-99.99,Weather View 32 v60,2013-07-01 02:00:00,
2013-06-30 21:05:00,70.0,52.5,30.10,WSW,248,0.0,2.0,54,0.00,,,-99.99,Weather View 32 v60,2013-07-01 02:05:00,
2013-06-30 21:10:00,69.0,52.6,30.10,WSW,248,0.0,2.0,56,0.00,,,-99.99,Weather View 32 v60,2013-07-01 02:10:00,
2013-06-30 21:15:00,68.0,51.7,30.10,SW,225,0.0,2.0,56,0.00,,,-99.99,Weather View 32 v60,2013-07-01 02:15:00,
2013-06-30 21:20:00,68.0,52.6,30.11,WSW,248,0.0,2.0,58,0.00,,,-99.99,Weather View 32 v60,2013-07-01 02:20:00,
2013-06-30 21:28:00,67.0,52.6,30.11,WSW,248,0.0,2.0,60,0.00,,,-99.99,Weather View 32 v60,2013-07-01 02:28:00,
2013-06-30 21:35:00,66.0,52.1,30.11,SW,225,0.0,2.0,61,0.00,,,-99.99,Weather View 32 v60,2013-07-01 02:35:00,
2013-06-30 21:40:00,65.0,51.6,30.11,SW,225,0.0,2.0,62,0.00,,,-99.99,Weather View 32 v60,2013-07-01 02:40:00,
2013-06-30 21:50:00,65.0,53.3,30.12,WSW,248,0.0,1.0,66,0.00,,,-99.99,Weather View 32 v60,2013-07-01 02:50:00,
2013-06-30 21:55:00,64.0,52.8,30.12,SW,225,0.0,1.0,67,0.00,,,-99.99,Weather View 32 v60,2013-07-01 02:55:00,
2013-06-30 22:05:00,64.0,53.6,30.12,SW,225,0.0,1.0,69,0.00,,,-99.99,Weather View 32 v60,2013-07-01 03:05:00,
2013-06-30 22:10:00,63.0,52.6,30.12,SSW,202,1.0,1.0,69,0.00,,,-99.99,Weather View 32 v60,2013-07-01 03:10:00,
2013-06-30 22:15:00,63.0,53.0,30.12,SW,225,0.0,1.0,70,0.00,,,-99.99,Weather View 32 v60,2013-07-01 03:15:00,
2013-06-30 22:20:00,63.0,53.4,30.12,SW,225,1.0,1.0,71,0.00,,,-99.99,Weather View 32 v60,2013-07-01 03:20:00,
2013-06-30 22:25:00,62.0,52.8,30.12,SW,225,0.0,1.0,72,0.00,,,-99.99,Weather View 32 v60,2013-07-01 03:25:00,
2013-06-30 22:30:00,62.0,53.2,30.12,WSW,248,0.0,1.0,73,0.00,,,-99.99,Weather View 32 v60,2013-07-01 03:30:00,
2013-06-30 22:40:00,61.0,52.6,30.13,WSW,248,0.0,1.0,74,0.00,,,-99.99,Weather View 32 v60,2013-07-01 03:40:00,
2013-06-30 22:45:00,61.0,52.6,30.13,WSW,248,0.0,1.0,74,0.00,,,-99.99,Weather View 32 v60,2013-07-01 03:45:00,
2013-06-30 22:50:00,61.0,53.0,30.13,SW,225,0.0,1.0,75,0.00,,,-99.99,Weather View 32 v60,2013-07-01 03:50:00,
2013-06-30 22:55:00,61.0,53.0,30.13,SW,225,0.0,1.0,75,0.00,,,-99.99,Weather View 32 v60,2013-07-01 03:55:00,
2013-06-30 23:00:00,60.0,52.4,30.13,SW,225,0.0,1.0,76,0.00,,,-99.99,Weather View 32 v60,2013-07-01 04:00:00,
2013-06-30 23:05:00,60.0,52.4,30.13,SW,225,0.0,1.0,76,0.00,,,-99.99,Weather View 32 v60,2013-07-01 04:05:00,
2013-06-30 23:10:00,60.0,52.4,30.13,SW,225,0.0,1.0,76,0.00,,,-99.99,Weather View 32 v60,2013-07-01 04:10:00,
2013-06-30 23:15:00,60.0,52.8,30.14,SW,225,0.0,1.0,77,0.00,,,-99.99,Weather View 32 v60,2013-07-01 04:15:00,
2013-06-30 23:20:00,59.0,51.8,30.14,SW,225,0.0,1.0,77,0.00,,,-99.99,Weather View 32 v60,2013-07-01 04:20:00,
2013-06-30 23:25:00,59.0,51.8,30.14,WSW,248,0.0,0.0,77,0.00,,,-99.99,Weather View 32 v60,2013-07-01 04:25:00,
2013-06-30 23:30:00,59.0,52.1,30.14,SW,225,0.0,0.0,78,0.00,,,-99.99,Weather View 32 v60,2013-07-01 04:30:00,
2013-06-30 23:35:00,59.0,52.1,30.14,SW,225,0.0,0.0,78,0.00,,,-99.99,Weather View 32 v60,2013-07-01 04:35:00,
2013-06-30 23:40:00,59.0,52.1,30.14,SW,225,0.0,0.0,78,0.00,,,-99.99,Weather View 32 v60,2013-07-01 04:40:00,
2013-06-30 23:45:00,59.0,52.5,30.14,SW,225,0.0,0.0,79,0.00,,,-99.99,Weather View 32 v60,2013-07-01 04:45:00,
2013-06-30 23:50:00,58.0,51.5,30.14,SW,225,0.0,0.0,79,0.00,,,-99.99,Weather View 32 v60,2013-07-01 04:50:00,
2013-06-30 23:55:00,58.0,51.5,30.14,SW,225,0.0,0.0,79,0.00,,,-99.99,Weather View 32 v60,2013-07-01 04:55:00,